Humidity-temperature Sensor

Selected Measurement Type: Relative Humidity

 
Relative Humidity [%]     6 entries per hour
Showing data from 7/26/2014 (00:00:00 Z) to 7/19/2014 (00:01:00 Z)
Previous Next [ Day | 3-Days | 7-Days ]
First Last
Prev [ Day | 3-Days | 7-Days ] Next
First Last

Start Time:     :
End Time:     :     
Time (in GMT) :00 :50 :40 :30 :20 :10
Previous Next [ Day | 3-Days | 7-Days ]
First Last
Prev [ Day | 3-Days | 7-Days ] Next
First Last


123 => good data
MM => data is determined as missing
-- => data not received/configured
Back to Top Back to Top
7/26/2014 00:00 to 23:10 87.72 87.30 87.91 87.76 87.16 87.64
7/25/2014 23:00 to 22:10 87.89 87.64 87.80 87.50 87.56 87.00
7/25/2014 22:00 to 21:10 86.94 86.96 87.70 87.72 86.63 86.94
7/25/2014 21:00 to 20:10 86.69 86.83 86.43 87.04 86.81 87.24
7/25/2014 20:00 to 19:10 86.85 85.97 86.01 86.29 86.21 86.17
7/25/2014 19:00 to 18:10 85.78 86.15 85.42 85.02 85.42 85.48
7/25/2014 18:00 to 17:10 85.84 85.92 85.88 86.01 85.28 85.42
7/25/2014 17:00 to 16:10 85.58 85.14 85.16 86.17 84.81 83.86
7/25/2014 16:00 to 15:10 84.13 84.83 84.13 84.23 84.33 84.71
7/25/2014 15:00 to 14:10 84.55 84.49 83.24 83.36 83.86 83.80
7/25/2014 14:00 to 13:10 83.22 83.09 83.01 83.44 84.89 84.95
7/25/2014 13:00 to 12:10 87.04 88.19 87.40 87.46 86.67 85.97
7/25/2014 12:00 to 11:10 85.10 86.53 88.37 88.59 88.86 89.50
7/25/2014 11:00 to 10:10 89.79 90.33 90.17 89.06 89.87 89.81
7/25/2014 10:00 to 9:10 88.25 87.85 86.37 86.33 87.04 86.63
7/25/2014 09:00 to 8:10 86.92 89.14 89.10 88.07 88.15 88.41
7/25/2014 08:00 to 7:10 87.70 89.89 89.71 89.34 89.38 89.40
7/25/2014 07:00 to 6:10 89.10 89.89 92.31 93.12 94.31 95.18
7/25/2014 06:00 to 5:10 95.73 95.89 95.61 96.68 96.66 96.60
7/25/2014 05:00 to 4:10 96.22 95.26 92.66 93.06 91.42 89.97
7/25/2014 04:00 to 3:10 88.59 88.53 89.83 90.25 91.20 90.74
7/25/2014 03:00 to 2:10 89.79 88.78 89.44 89.16 89.08 88.80
7/25/2014 02:00 to 1:10 88.92 88.23 88.84 89.36 89.24 88.90
7/25/2014 01:00 to 0:10 88.76 88.67 89.44 89.12 89.24 88.51
7/25/2014 00:00 to 23:10 88.25 88.23 87.72 87.93 88.61 88.35
7/24/2014 23:00 to 22:10 89.02 89.30 88.76 88.47 88.69 88.51
7/24/2014 22:00 to 21:10 88.86 89.10 89.00 89.91 89.81 89.48
7/24/2014 21:00 to 20:10 89.52 91.00 90.13 88.59 89.04 89.02
7/24/2014 20:00 to 19:10 88.65 88.23 88.53 88.39 88.45 88.69
7/24/2014 19:00 to 18:10 89.14 89.28 89.20 88.57 88.29 88.96
7/24/2014 18:00 to 17:10 88.96 89.81 90.13 90.07 90.11 90.07
7/24/2014 17:00 to 16:10 89.83 89.42 89.32 89.06 88.53 88.86
7/24/2014 16:00 to 15:10 89.20 88.94 88.71 88.69 88.35 88.39
7/24/2014 15:00 to 14:10 88.43 88.57 88.67 88.25 88.13 88.17
7/24/2014 14:00 to 13:10 88.01 87.78 87.64 87.56 87.78 87.70
7/24/2014 13:00 to 12:10 88.33 88.86 89.16 89.40 89.58 89.56
7/24/2014 12:00 to 11:10 89.54 89.58 89.62 89.26 89.02 88.90
7/24/2014 11:00 to 10:10 88.76 88.82 88.05 88.17 88.59 88.51
7/24/2014 10:00 to 9:10 88.07 88.05 88.63 88.90 89.08 89.34
7/24/2014 09:00 to 8:10 89.10 89.20 89.60 89.52 88.76 88.88
7/24/2014 08:00 to 7:10 88.49 88.55 88.07 88.01 87.89 88.07
7/24/2014 07:00 to 6:10 88.37 88.71 89.06 89.16 88.90 88.88
7/24/2014 06:00 to 5:10 88.69 88.21 88.15 88.03 87.91 87.93
7/24/2014 05:00 to 4:10 87.34 87.20 87.62 86.87 85.99 85.88
7/24/2014 04:00 to 3:10 86.27 85.97 86.19 86.55 86.11 86.21
7/24/2014 03:00 to 2:10 86.37 86.75 87.83 87.70 87.87 87.68
7/24/2014 02:00 to 1:10 87.54 87.22 87.32 87.28 86.87 87.20
7/24/2014 01:00 to 0:10 86.41 86.45 86.29 87.52 87.38 86.47
7/24/2014 00:00 to 23:10 85.84 85.86 85.46 85.64 85.20 85.16
7/23/2014 23:00 to 22:10 85.92 86.25 85.88 86.07 85.52 85.32
7/23/2014 22:00 to 21:10 86.35 86.67 86.37 86.39 85.99 88.90
7/23/2014 21:00 to 20:10 91.04 89.50 87.83 87.14 88.07 87.91
7/23/2014 20:00 to 19:10 89.81 90.98 91.75 92.88 91.99 86.31
7/23/2014 19:00 to 18:10 86.51 86.45 84.65 84.93 85.60 87.72
7/23/2014 18:00 to 17:10 85.42 83.90 84.57 84.75 85.88 85.72
7/23/2014 17:00 to 16:10 86.31 87.99 86.92 85.22 84.57 84.06
7/23/2014 16:00 to 15:10 84.06 84.39 85.52 84.75 83.64 83.96
7/23/2014 15:00 to 14:10 -- -- -- -- -- --
7/23/2014 14:00 to 13:10 84.75 83.82 84.99 85.92 85.38 86.15
7/23/2014 13:00 to 12:10 85.72 85.26 86.35 86.35 86.94 86.59
7/23/2014 12:00 to 11:10 85.94 86.25 87.02 86.15 86.51 86.53
7/23/2014 11:00 to 10:10 86.23 86.21 85.90 85.52 84.69 85.06
7/23/2014 10:00 to 9:10 84.65 84.93 85.14 84.63 84.47 84.77
7/23/2014 09:00 to 8:10 85.62 85.68 83.76 84.53 83.76 84.06
7/23/2014 08:00 to 7:10 84.23 85.14 84.69 83.92 84.65 84.00
7/23/2014 07:00 to 6:10 84.21 83.74 84.45 82.73 84.06 83.52
7/23/2014 06:00 to 5:10 83.13 81.90 82.31 82.65 83.94 82.85
7/23/2014 05:00 to 4:10 81.88 82.31 81.96 81.68 81.80 82.31
7/23/2014 04:00 to 3:10 82.79 83.42 83.56 84.51 84.29 84.53
7/23/2014 03:00 to 2:10 85.62 85.68 86.98 86.41 85.82 84.47
7/23/2014 02:00 to 1:10 85.56 85.30 85.66 86.13 86.43 86.45
7/23/2014 01:00 to 0:10 86.79 86.01 85.72 85.58 84.81 84.81
7/23/2014 00:00 to 23:10 85.38 87.36 81.44 80.71 80.65 81.36
7/22/2014 23:00 to 22:10 81.27 81.86 80.89 80.53 80.71 82.45
7/22/2014 22:00 to 21:10 81.66 83.50 84.33 83.80 83.72 83.28
7/22/2014 21:00 to 20:10 82.77 81.09 79.68 80.10 79.94 80.41
7/22/2014 20:00 to 19:10 81.03 79.60 81.80 81.52 83.74 84.49
7/22/2014 19:00 to 18:10 84.00 85.84 87.99 90.33 86.03 86.71
7/22/2014 18:00 to 17:10 88.88 88.53 88.01 87.78 88.31 88.84
7/22/2014 17:00 to 16:10 89.02 88.35 87.42 87.85 86.47 86.15
7/22/2014 16:00 to 15:10 86.71 88.13 89.22 90.11 90.09 89.85
7/22/2014 15:00 to 14:10 90.01 89.73 89.99 87.95 89.00 88.09
7/22/2014 14:00 to 13:10 88.21 91.73 93.91 94.46 94.36 95.00
7/22/2014 13:00 to 12:10 95.18 95.18 95.83 96.11 96.26 96.30
7/22/2014 12:00 to 11:10 96.72 96.82 96.90 96.86 96.78 96.80
7/22/2014 11:00 to 10:10 96.78 96.70 96.66 96.78 96.90 96.70
7/22/2014 10:00 to 9:10 96.68 96.68 96.60 96.58 96.70 96.82
7/22/2014 09:00 to 8:10 97.06 97.04 97.08 97.00 96.98 97.06
7/22/2014 08:00 to 7:10 97.12 97.27 97.25 97.12 96.80 96.40
7/22/2014 07:00 to 6:10 96.34 96.32 96.36 96.32 96.22 96.28
7/22/2014 06:00 to 5:10 96.36 96.44 96.50 96.40 96.36 96.44
7/22/2014 05:00 to 4:10 96.40 96.30 96.09 96.19 96.11 96.22
7/22/2014 04:00 to 3:10 96.52 96.48 96.62 96.48 96.09 96.34
7/22/2014 03:00 to 2:10 96.11 95.85 95.77 95.65 95.63 95.93
7/22/2014 02:00 to 1:10 96.07 96.26 95.83 95.04 94.84 94.60
7/22/2014 01:00 to 0:10 94.29 94.13 94.09 94.07 94.19 94.29
7/22/2014 00:00 to 23:10 94.31 94.42 94.54 94.66 94.01 93.53
7/21/2014 23:00 to 22:10 93.73 93.93 93.87 93.79 93.47 93.32
7/21/2014 22:00 to 21:10 93.26 92.92 92.60 92.52 92.35 92.11
7/21/2014 21:00 to 20:10 92.01 91.63 91.48 91.65 91.97 91.73
7/21/2014 20:00 to 19:10 92.19 92.41 92.66 92.41 92.58 92.66
7/21/2014 19:00 to 18:10 92.62 93.22 93.18 93.34 93.30 93.12
7/21/2014 18:00 to 17:10 92.90 92.60 92.11 92.33 92.47 92.60
7/21/2014 17:00 to 16:10 92.43 91.99 91.93 91.91 92.15 91.81
7/21/2014 16:00 to 15:10 91.59 91.50 92.07 92.17 92.05 92.52
7/21/2014 15:00 to 14:10 92.74 93.04 93.57 94.01 94.36 94.76
7/21/2014 14:00 to 13:10 95.00 95.39 95.59 95.73 95.77 95.81
7/21/2014 13:00 to 12:10 95.95 96.11 96.24 96.24 96.17 96.11
7/21/2014 12:00 to 11:10 96.09 96.09 96.07 96.09 96.11 96.09
7/21/2014 11:00 to 10:10 96.01 96.03 96.01 96.03 96.03 95.97
7/21/2014 10:00 to 9:10 95.91 95.77 95.71 95.65 95.57 95.47
7/21/2014 09:00 to 8:10 95.29 95.12 94.88 94.48 94.15 93.79
7/21/2014 08:00 to 7:10 93.65 93.49 93.83 94.05 94.31 94.42
7/21/2014 07:00 to 6:10 94.38 94.33 94.29 94.31 94.88 95.51
7/21/2014 06:00 to 5:10 96.11 96.32 96.40 96.44 96.52 96.92
7/21/2014 05:00 to 4:10 97.21 96.94 96.58 96.11 96.01 95.69
7/21/2014 04:00 to 3:10 94.98 94.78 94.70 94.58 94.46 94.36
7/21/2014 03:00 to 2:10 94.17 93.95 93.95 93.87 93.71 93.61
7/21/2014 02:00 to 1:10 93.51 93.36 93.14 93.08 93.00 93.06
7/21/2014 01:00 to 0:10 93.12 92.76 92.56 92.35 91.99 91.69
7/21/2014 00:00 to 23:10 91.40 91.12 90.90 91.00 91.02 90.88
7/20/2014 23:00 to 22:10 90.51 90.51 90.57 90.45 90.49 90.45
7/20/2014 22:00 to 21:10 90.64 90.47 90.64 90.66 91.08 91.22
7/20/2014 21:00 to 20:10 91.26 91.06 91.08 91.48 91.93 92.33
7/20/2014 20:00 to 19:10 92.41 92.60 92.86 93.38 93.14 92.82
7/20/2014 19:00 to 18:10 92.47 92.70 93.45 93.36 93.53 93.49
7/20/2014 18:00 to 17:10 93.14 93.04 93.12 93.32 93.45 93.69
7/20/2014 17:00 to 16:10 93.53 93.51 93.53 93.63 93.47 93.43
7/20/2014 16:00 to 15:10 93.53 93.59 93.71 93.69 93.57 93.63
7/20/2014 15:00 to 14:10 -- -- -- -- -- --
7/20/2014 14:00 to 13:10 93.18 92.94 92.86 92.94 92.88 93.22
7/20/2014 13:00 to 12:10 93.61 93.87 94.21 94.58 94.46 94.31
7/20/2014 12:00 to 11:10 94.17 94.29 94.17 94.19 94.21 94.31
7/20/2014 11:00 to 10:10 94.31 94.40 94.23 94.13 94.27 94.13
7/20/2014 10:00 to 9:10 94.07 93.95 93.97 93.89 93.77 93.63
7/20/2014 09:00 to 8:10 93.61 93.53 93.57 93.45 93.40 93.30
7/20/2014 08:00 to 7:10 93.30 93.26 93.12 93.02 93.12 93.02
7/20/2014 07:00 to 6:10 92.78 92.52 92.35 91.87 91.99 92.33
7/20/2014 06:00 to 5:10 92.11 92.07 91.75 91.36 91.12 90.70
7/20/2014 05:00 to 4:10 90.43 89.95 89.87 89.79 89.95 90.17
7/20/2014 04:00 to 3:10 90.41 90.37 90.15 90.35 90.07 90.13
7/20/2014 03:00 to 2:10 90.07 89.73 89.50 89.22 89.06 88.86
7/20/2014 02:00 to 1:10 88.69 89.30 89.42 89.62 89.66 89.28
7/20/2014 01:00 to 0:10 89.22 89.46 89.48 89.81 89.71 88.65
7/20/2014 00:00 to 23:10 88.47 88.88 87.91 87.24 87.34 86.85
7/19/2014 23:00 to 22:10 86.29 86.94 86.23 87.66 88.03 88.31
7/19/2014 22:00 to 21:10 88.33 87.64 84.79 83.76 83.28 82.10
7/19/2014 21:00 to 20:10 82.27 82.53 83.16 82.35 82.71 82.97
7/19/2014 20:00 to 19:10 81.94 80.87 79.88 79.05 77.64 76.06
7/19/2014 19:00 to 18:10 76.46 78.22 79.88 79.92 81.21 82.06
7/19/2014 18:00 to 17:10 82.59 80.83 81.01 80.41 81.62 81.94
7/19/2014 17:00 to 16:10 82.87 82.02 83.34 84.29 84.59 85.70
7/19/2014 16:00 to 15:10 83.92 84.57 84.09 83.13 82.79 84.17
7/19/2014 15:00 to 14:10 84.75 84.09 84.02 83.38 80.18 78.71
7/19/2014 14:00 to 13:10 78.79 77.86 75.94 78.14 84.95 88.43
7/19/2014 13:00 to 12:10 89.60 89.66 88.55 87.68 88.67 88.41
7/19/2014 12:00 to 11:10 89.02 87.16 88.47 90.45 91.08 90.98
7/19/2014 11:00 to 10:10 90.76 89.75 85.97 85.50 85.26 84.33
7/19/2014 10:00 to 9:10 84.63 83.94 82.45 81.90 82.57 83.16
7/19/2014 09:00 to 8:10 84.75 84.75 86.07 85.12 85.22 85.94
7/19/2014 08:00 to 7:10 86.01 86.51 87.91 87.99 88.25 88.84
7/19/2014 07:00 to 6:10 86.59 79.96 79.03 78.79 79.09 81.88
7/19/2014 06:00 to 5:10 81.56 80.71 79.54 78.83 79.09 80.95
7/19/2014 05:00 to 4:10 81.48 80.32 81.07 82.00 82.65 82.20
7/19/2014 04:00 to 3:10 82.47 82.33 83.34 82.79 84.02 81.05
7/19/2014 03:00 to 2:10 80.12 81.09 79.60 79.35 79.70 80.81
7/19/2014 02:00 to 1:10 81.98 83.48 84.02 84.71 84.89 84.39
7/19/2014 01:00 to 0:10 83.64 82.75 82.73 82.69 83.18 83.28